Regional Weather Roundup
Issued by NWS

Home | Current Version | Previous Version | Graphics & Text | Print | Product List | Glossary Off
Versions: 1 2 3 4 5 6 7 8 9 10 11 12 13 14 15 16 17 18 19 20 21 22 23 24 25 26 27 28 29 30 31 32 33 34 35 36 37 38 39 40 41 42 43 44 45 46 47 48 49 50

000
ASUS43 KMKX 220659
RWRWI

WISCONSIN REGIONAL WEATHER ROUNDUP
NATIONAL WEATHER SERVICE MILWAUKEE/SULLIVAN WI
100 AM CST SUN JAN 22 2017

NOTE: "FAIR" INDICATES FEW OR NO CLOUDS BELOW 12,000 FEET WITH NO
SIGNIFICANT WEATHER AND/OR OBSTRUCTIONS TO VISIBILITY.

WIZ001-002-006>008-014>016-023>028-220800-
NORTHWEST WISCONSIN

CITY           SKY/WX    TMP DP  RH WIND       PRES   REMARKS
SUPERIOR ARPT  CLOUDY    35  35 100 N5        29.56S FOG     WCI  31
ASHLAND        FOG       34  33  96 W3        29.54S VSB 1/2
HAYWARD        FOG       34  33  96 CALM      29.53R VSB 1/2
SIREN          CLOUDY    34  34  99 N3        29.55R FOG
CUMBERLAND     FOG       32  32 100 W3        29.53S VSB 1/2
RICE LAKE      CLOUDY    34  34 100 W3        29.54S FOG
CHETEK         FOG       34  34 100 CALM      29.53S VSB 1
LADYSMITH      FOG       34  34  99 CALM      29.53R VSB 1/2
EAU CLAIRE     LGT RAIN  34  34 100 CALM      29.53S VSB 1/2
MENOMONIE        N/A    N/A N/A N/A MISG        N/A
NEW RICHMOND   FOG       34  34 100 CALM      29.54S VSB 1/2
OSCEOLA        FOG       34  34 100 NW3       29.57F VSB 1/2
$$

WIZ003>005-009-010-017-018-220800-
NORTH CENTRAL WISCONSIN

CITY           SKY/WX    TMP DP  RH WIND       PRES   REMARKS
MANITOWISH WTR FOG       33  33 100 CALM      29.49S VSB 1/4
ARBOR VITAE    FOG       37  36  97 CALM      29.50R VSB 1/2
WOODRUFF       FOG       37  36  97 CALM      29.50R VSB 1/2
RHINELANDER    FOG       36  36 100 CALM      29.51R VSB 1/2
EAGLE RIVER    FOG       34  34 100 CALM      29.50R VSB 1/4
LAND O LAKES   FOG       34  34 100 CALM      29.51S VSB 1/4
PHILLIPS       FOG       33  33 100 CALM      29.50S VSB 1/4
TOMAHAWK       FOG       33  33  98 CALM      29.51S VSB 3/4
MEDFORD        FOG       33  33  99 S3        29.51S VSB 1/4
MERRILL        FOG       34  34 100 CALM        N/A  VSB 1/2
$$

WIZ029-030-035-036-043>047-220800-
CENTRAL WISCONSIN

CITY           SKY/WX    TMP DP  RH WIND       PRES   REMARKS
WAUSAU         FOG       35  35 100 CALM      29.51S VSB 1/4
MOSINEE        SNOW      34  34 100 S5        29.53S VSB 1/4 WCI  30
MARSHFIELD     FOG       36  32  85 SW5       29.51S VSB 1/4 WCI  32
STEVENS POINT  FOG       35  35 100 SW3       29.54S VSB 1/4
WAUPACA        FOG       37  36  96 CALM      29.55S VSB 1/4
WAUTOMA        FOG       39  38  96 S3        29.55F VSB 1/4
WISC RAPIDS    FOG       38  38 100 SW7       29.54S VSB 1/4 WCI  33
CAMP DOUGLAS   NOT AVBL
$$

WIZ011>013-019>022-031-037>040-048>050-220800-
NORTHEAST WISCONSIN

CITY           SKY/WX    TMP DP  RH WIND       PRES   REMARKS
ANTIGO         FOG       33  33 100 S3        29.52S VSB 1/4
SHAWANO        FOG       36  35  96 CALM      29.55R VSB 3/4
OCONTO         CLOUDY    35  35 100 S3        29.56R VSB 3/4
STURGEON BAY   CLOUDY    38  37  97 SW6       29.57R FOG     WCI  33
GREEN BAY      FOG       37  37 100 CALM      29.55S VSB 1/4
MANITOWOC      FOG       39  37  93 MISG      29.56F VSB 1/2
APPLETON       FOG       36  36 100 S5        29.54S VSB 1/4 WCI  32
CLINTONVILLE   FOG       34  34 100 CALM      29.55S VSB 1/2
OSHKOSH        FOG       38  38 100 S6        29.55S VSB 1/2 WCI  33
$$

WIZ032>034-041-042-053>061-220800-
SOUTHWEST WISCONSIN

CITY           SKY/WX    TMP DP  RH WIND       PRES   REMARKS
LA CROSSE      CLOUDY    40  36  86 E5        29.55S FOG
SPARTA         CLOUDY    37  37 100 CALM      29.55S FOG
VIROQUA        CLOUDY    37  37 100 SW6       29.54S WCI  32
BOSCOBEL       FOG       37  36  96 CALM      29.57S VSB 3/4
PRAIRIE DU CHI FOG       37  36  96 CALM      29.57R VSB 3/4
PLATTEVILLE    CLOUDY    37  37 100 S6        29.57S VSB 1/4 WCI  33
$$

WIZ056-057-062-063-064-067-068-220800-
SOUTH CENTRAL WISCONSIN

CITY           SKY/WX    TMP DP  RH WIND       PRES   REMARKS
REEDSBURG      CLOUDY    38  38 100 S3        29.55S FOG
BARABOO/DELLS  FOG       36  36  99 CALM      29.55S VSB<1/4
LONE ROCK      NOT AVBL
MINERAL POINT  FOG       41  41 100 SW3       29.56R VSB 1/4
MADISON        CLOUDY    40  39  97 CALM      29.57S FOG
MIDDLETON      CLOUDY    41  41 100 CALM      29.56S VSB 1/4
WATERTOWN      CLOUDY    38  38 100 CALM      29.56S FOG
MONROE         FOG       37  37 100 SW6       29.56F VSB 1/4 WCI  33
JANESVILLE     FOG       41  41 100 CALM      29.57S VSB 1/2
$$

WIZ051-052-058>065-066-070>072-220800-
SOUTHEAST WISCONSIN

CITY           SKY/WX    TMP DP  RH WIND       PRES   REMARKS
MILWAUKEE      MOCLDY    42  38  85 SW5       29.57F
WAUKESHA       CLOUDY    37  37 100 S6        29.58S FOG     WCI  33
MILWAUKEE/TIMM CLEAR     37  36  93 SW6       29.58S FOG     WCI  33
RACINE         MOCLDY    41  38  89 W3        29.60S
KENOSHA        FOG       37  37 100 W3        29.58S VSB 3/4
FOND DU LAC    CLOUDY    40  37  89 S5        29.56S
SHEBOYGAN      CLOUDY    39  36  89 S6        29.56S FOG     WCI  35
WEST BEND      CLOUDY    41  41 100 SW3       29.57S FOG
JUNEAU         CLOUDY    38  38  99 S6        29.57S FOG     WCI  34
$$

LSZ147-162-220800-
LAKE SUPERIOR

STATION/POSITION TIME  TEMP    WIND        PRES    WAVE
                       AIR SEA DIR/SP/G            HT/PER
                 (UTC) (F)     (DEG/KT/KT) (MB)    (FT/S)
DEVILS ISLAND    0600   36      40/ 11/ 12 1001.0R
PORT WING        0640   34     360/  4/  5 1001.4R
SAXON HARBOR     0640   33        CALM     1000.3R
$$

LMZ867-665-643>646-220800-
LAKE MICHIGAN

STATION/POSITION TIME  TEMP    WIND        PRES    WAVE
                       AIR SEA DIR/SP/G            HT/PER
                 (UTC) (F)     (DEG/KT/KT) (MB)    (FT/S)
NORTHPORT PIER   0640   38     230/  3/  8 1000.7S
SISTER BAY       0620   38     240/  8/  9   N/A
KEWAUNEE LAKESHO 0630   39      CALM  /  3 1000.8F
SHEBOYGAN LAKESH 0600   43     170/  5/  5 1001.3F
PORT WASHINGTON  0640   39     230/  1/  2 1002.7S
KENOSHA   LAKESH 0600   43     270/  7/ 10 1002.0
$$

TC  - TEMPERATURE IN CELSIUS
VSB - VISIBILITY IN STATUTE MILES
WCI - WIND CHILL INDEX
HX  - HEAT INDEX





USA.gov is the U.S. government's official web portal to all federal, state and local government web resources and services.